[[{"header":{"parameterUnit":"m.s-1","parameterCategory":1,"la1":30.2991,"la2":30.254,"lo1":-89.0895,"lo2":-89.0444,"dy":0.0017,"dx":0.0017,"nx":28,"ny":28,"refTime":"2024-04-27T21:00:00:Z","depth":0,"parameterNumber":2,"parameterNumberName":"U-component_of_WINDS"},"data":[0,0,0,0,0,0,0,0,0,0,0,0,0,0,0,0,0,0,0,0,0,0,0,0,0,0,0,0,0,0,0,0,0,0,0,0,0,0,0,0,0,0,0,0,0,0,0,0,0,0,0,0,0,0,0,0,0,0,-7.6083,-7.6085,0,-7.623,-7.6232,-7.6234,-7.6186,-7.6183,-7.618,-7.6177,-7.6324,-7.6331,-7.6338,0,0,0,0,0,0,0,0,0,0,0,0,0,-7.5759,-7.5765,-7.6083,-7.6085,-7.6087,-7.623,-7.6232,-7.6234,-7.6187,-7.6183,-7.6179,-7.6176,-7.6322,-7.633,-7.6338,0,0,0,0,0,0,0,0,0,0,0,0,0,-7.5902,-7.5768,-7.6083,-7.6081,-7.6082,-7.623,-7.6232,-7.6235,-7.6188,-7.6183,-7.6178,-7.6174,-7.6319,-7.6329,-7.6339,-7.6497,0,0,-7.6371,-7.6375,0,0,0,0,0,0,0,0,-7.5894,-7.5914,-7.6079,-7.6081,-7.6083,-7.6185,-7.6172,-7.6323,-7.6189,-7.6147,-7.6177,-7.6171,-7.6282,-7.6295,-7.6332,-7.6504,-7.651,-7.6372,-7.6378,-7.6382,-7.6385,0,0,0,0,0,0,0,-7.5885,-7.5908,-7.6141,-7.6082,-7.6084,-7.6072,-7.6087,-7.62,-7.6239,-7.6151,-7.6148,-7.6166,-7.6282,-7.6323,-7.6336,-7.6513,-7.6371,-7.6381,-7.6387,-7.6391,-7.6821,-7.6826,0,0,0,0,0,0,-7.5874,-7.59,-7.6137,-7.6146,-7.5975,-7.6081,-7.6098,-7.6157,-7.6238,-7.6245,-7.617,-7.6163,-7.6307,-7.6324,-7.6341,-7.6529,-7.6382,-7.6392,-7.6398,-7.6816,-7.6822,-7.6828,0,0,0,0,0,0,-7.5867,-7.5895,-7.6131,-7.6022,-7.6051,-7.6092,-7.6158,-7.6162,-7.6203,-7.6252,-7.6258,-7.6205,-7.6304,-7.6326,-7.6459,-7.6534,-7.6396,-7.6406,-7.681,-7.6818,-7.6825,-7.6909,0,0,0,0,0,0,-7.5858,-7.5893,-7.5954,-7.6024,-7.6057,-7.6247,-7.6163,-7.6169,-7.6222,-7.6214,-7.6286,-7.6294,-7.6302,-7.6444,-7.6469,-7.6545,-7.6414,-7.6803,-7.6813,-7.6823,-7.69,-7.6919,-7.6935,0,0,0,0,0,-7.5847,-7.5971,-7.5957,-7.5986,-7.6134,-7.6251,-7.627,-7.6278,-7.6228,-7.6289,-7.632,-7.6292,-7.6523,-7.6458,-7.6486,-7.6566,-7.6798,-7.6811,-7.6822,-7.6892,-7.6915,-7.6935,0,0,0,0,0,0,-7.5906,-7.598,-7.5965,-7.6116,-7.6178,-7.6243,-7.632,-7.6303,-7.638,-7.6369,-7.6376,-7.6392,-7.6528,-7.6561,-7.6488,-7.6724,-7.6653,-7.6671,-7.6696,-7.6719,-7.6736,-7.6724,-7.6422,0,0,0,0,0,-7.5938,-7.6028,-7.6087,-7.6214,-7.6247,-7.6279,-7.633,-7.6331,-7.6395,-7.6421,-7.6462,-7.6524,-7.6611,-7.6667,-7.675,-7.6906,-7.692,-7.6976,-7.6994,-7.7008,-7.7022,-7.7106,-7.7131,-7.6867,-7.6867,-7.6867,0,0,-7.6002,-7.6053,-7.6109,-7.6228,-7.6276,-7.6368,-7.63,-7.6401,-7.6469,-7.6435,-7.6563,-7.6596,-7.6666,-7.6811,-7.6877,-7.6843,-7.7099,-7.7023,-7.7034,-7.704,-7.7121,-7.7146,-7.7168,-7.6875,-7.6874,-7.6872,0,0,-7.6165,-7.6215,-7.6325,-7.6376,-7.6451,-7.6472,-7.6499,-7.6568,-7.6588,-7.6717,-7.6694,-7.6776,-7.6925,-7.6976,-7.7021,-7.7208,-7.7184,-7.7235,-7.7326,-7.7408,-7.7429,-7.7447,-7.7512,-7.7535,-7.725,-7.725,-7.7251,0,-7.6235,-7.6374,-7.6384,-7.6487,-7.654,-7.6517,-7.6628,-7.6677,-7.6774,-7.681,-7.6772,-7.6959,-7.7005,-7.7161,-7.7207,-7.7246,-7.7275,-7.7224,-7.7426,-7.7444,-7.7461,-7.7523,-7.7547,-7.7256,-7.7255,-7.7255,-7.7254,0,-7.6455,-7.6552,-7.6633,-7.6729,-7.6791,-7.6898,-7.6924,-7.6986,-7.6983,-7.7008,-7.714,-7.7195,-7.7288,-7.7326,-7.7324,-7.7483,-7.7459,-7.7424,-7.7351,-7.7492,-7.7549,-7.7573,-7.7264,-7.7262,-7.726,-7.7259,0,0,-7.6655,-7.6759,-7.6788,-7.6831,-7.6914,-7.6988,-7.7095,-7.7188,-7.724,-7.7309,-7.7397,-7.7526,-7.7494,-7.7546,-7.755,-7.7623,-7.7765,-7.7578,-7.758,-7.7608,-7.7942,-7.7965,-7.7992,-7.7752,-7.7757,-7.776,-7.7935,0,-7.6823,-7.7011,-7.7025,-7.7194,-7.7283,-7.7264,-7.7357,-7.7417,-7.7445,-7.7524,-7.7554,-7.7645,-7.7597,-7.7628,-7.77,-7.7733,-7.7832,-7.7721,-7.7832,-7.7836,-7.781,-7.8023,-7.8047,-7.8209,-7.7958,-7.7961,-7.7964,0,-7.7043,-7.712,-7.7299,-7.7369,-7.7407,-7.7491,-7.7577,-7.7654,-7.7723,-7.7737,-7.7797,-7.7792,-7.7901,-7.7829,-7.7979,-7.7903,-7.795,-7.7974,-7.7981,-7.7987,-7.7905,-7.8032,-7.8261,-7.8284,-7.8,-7.7997,-7.7995,0,-7.7168,-7.7317,-7.7443,-7.7481,-7.7568,-7.7626,-7.7665,-7.7729,-7.7784,-7.7861,-7.7896,-7.7984,-7.8031,-7.8099,-7.8117,-7.8064,-7.8266,-7.8196,-7.828,-7.8279,-7.8319,-7.8315,-7.8555,-7.8356,-7.8356,-7.8355,-7.8355,0,-7.7352,-7.746,-7.75,-7.7577,-7.7699,-7.7715,-7.7834,-7.7869,-7.7928,-7.801,-7.8001,-7.8079,-7.81,-7.8182,-7.8198,-7.8318,-7.8341,-7.8354,-7.8356,-7.8353,-7.8351,-7.838,-7.8368,-7.8362,-7.836,-7.8359,-7.8358,0,-7.7509,-7.7541,-7.7676,-7.7748,-7.7769,-7.7855,-7.7916,-7.799,-7.8018,-7.8123,-7.8149,-7.8192,-7.8288,-7.8314,-7.8429,-7.844,-7.8581,-7.8574,-7.8557,-7.8556,-7.8637,-7.8628,-7.89,-7.8936,-7.8718,-7.872,-7.8722,0,-7.7622,-7.7706,-7.7788,-7.7843,-7.7885,-7.7974,-7.8031,-7.8052,-7.8111,-7.8197,-7.826,-7.8356,-7.8432,-7.8587,-7.8628,-7.8716,-7.8709,-7.8799,-7.8722,-7.8716,-7.8707,-7.87,-7.8707,-7.8812,-7.8814,-7.8816,-7.8818,0,-7.7819,-7.7831,-7.7913,-7.8003,-7.8071,-7.8142,-7.821,-7.8256,-7.8286,-7.8353,-7.8452,-7.8512,-7.8631,-7.8725,-7.8815,-7.8854,-7.884,-7.8843,-7.8866,-7.8861,-7.8846,-7.8852,-7.8593,-7.8835,-7.8833,-7.8832,-7.8831,-7.883,-7.7955,-7.8029,-7.8098,-7.8191,-7.8245,-7.8309,-7.8382,-7.842,-7.8503,-7.8601,-7.8609,-7.8716,-7.8784,-7.8903,-7.8948,-7.9031,-7.9004,-7.9039,-7.9047,-7.9054,-7.906,-7.8837,-7.9048,-7.9048,-7.9047,-7.9047,-7.9047,0,-7.8149,-7.8193,-7.8279,-7.8375,-7.8448,-7.8433,-7.8508,-7.8569,-7.8664,-7.8729,-7.8806,-7.892,-7.9012,-7.9062,-7.9153,-7.9211,-7.9207,-7.9234,-7.9227,-7.9236,-7.908,-7.9049,-7.9235,-7.9235,-7.9235,-7.9235,-7.9235,-7.9235,-7.8257,-7.838,-7.8401,-7.8551,-7.8595,-7.87,-7.8744,-7.8803,-7.8855,-7.8983,-7.906,-7.9093,-7.9152,-7.9248,-7.9332,-7.9344,-7.9377,-7.9407,-7.9415,-7.9267,-7.9247,-7.9229,-7.92,-7.9415,-7.9415,-7.9564,-7.9566,-7.9567]},{"header":{"parameterUnit":"m.s-1","parameterCategory":1,"la1":30.2991,"la2":30.254,"lo1":-89.0895,"lo2":-89.0444,"dy":0.0017,"dx":0.0017,"nx":28,"ny":28,"refTime":"2024-04-27T21:00:00:Z","depth":0,"parameterNumber":3,"parameterNumberName":"V-component_of_WINDS"},"data":[0,0,0,0,0,0,0,0,0,0,0,0,0,0,0,0,0,0,0,0,0,0,0,0,0,0,0,0,0,0,0,0,0,0,0,0,0,0,0,0,0,0,0,0,0,0,0,0,0,0,0,0,0,0,0,0,0,0,4.135,4.135,0,4.1406,4.1407,4.1407,4.1412,4.1411,4.1411,4.141,4.1463,4.1465,4.1467,0,0,0,0,0,0,0,0,0,0,0,0,0,4.1243,4.1245,4.135,4.135,4.1351,4.1406,4.1407,4.1407,4.1412,4.1411,4.141,4.141,4.1463,4.1465,4.1468,0,0,0,0,0,0,0,0,0,0,0,0,0,4.1293,4.1246,4.1349,4.136,4.1361,4.1406,4.1407,4.1408,4.1412,4.1411,4.141,4.1409,4.1462,4.1465,4.1468,4.1504,0,0,4.1477,4.1478,0,0,0,0,0,0,0,0,4.1291,4.1297,4.1358,4.1359,4.1361,4.1401,4.1389,4.144,4.1412,4.1393,4.141,4.1409,4.1443,4.1448,4.146,4.1507,4.1509,4.1477,4.1479,4.148,4.1481,0,0,0,0,0,0,0,4.1287,4.1295,4.1372,4.1359,4.1361,4.1361,4.1367,4.1398,4.1422,4.1394,4.1395,4.1402,4.1444,4.1457,4.1461,4.151,4.1477,4.148,4.1482,4.1483,4.1591,4.1592,0,0,0,0,0,0,4.1282,4.1292,4.137,4.1373,4.1323,4.1364,4.1371,4.1389,4.1422,4.1426,4.1402,4.1402,4.1452,4.1458,4.1463,4.1509,4.148,4.1483,4.1485,4.159,4.1591,4.1592,0,0,0,0,0,0,4.128,4.1289,4.1368,4.1333,4.1343,4.1367,4.1387,4.1391,4.1404,4.1428,4.1432,4.1412,4.1452,4.1459,4.1495,4.1511,4.1484,4.1487,4.1588,4.159,4.1592,4.16,0,0,0,0,0,0,4.1277,4.1288,4.1303,4.1333,4.1345,4.1399,4.1388,4.1392,4.141,4.1409,4.1438,4.1442,4.1452,4.149,4.1498,4.1514,4.1489,4.1587,4.1589,4.1591,4.1598,4.1602,4.1605,0,0,0,0,0,4.1273,4.1301,4.1303,4.1313,4.1364,4.14,4.1406,4.1419,4.1411,4.1425,4.1441,4.1441,4.1508,4.1494,4.1502,4.152,4.1586,4.1589,4.1591,4.1597,4.1601,4.1605,0,0,0,0,0,0,4.127,4.1305,4.1308,4.1347,4.1371,4.1401,4.1419,4.1422,4.1447,4.1446,4.1459,4.1465,4.1501,4.1514,4.1497,4.1558,4.1546,4.155,4.1548,4.1552,4.1555,4.1551,4.1492,0,0,0,0,0,4.1274,4.1302,4.1331,4.1363,4.1375,4.1395,4.1411,4.1419,4.1443,4.1453,4.1471,4.1493,4.152,4.1537,4.1562,4.1601,4.1607,4.1617,4.162,4.1623,4.1626,4.1649,4.1654,4.16,4.16,4.16,0,0,4.1282,4.1305,4.1321,4.1363,4.1382,4.141,4.1403,4.1432,4.1453,4.1456,4.1492,4.1506,4.1532,4.157,4.1588,4.1582,4.1643,4.1626,4.1628,4.163,4.1652,4.1657,4.1662,4.1602,4.1602,4.1601,0,0,4.1311,4.1332,4.1361,4.1381,4.1411,4.1425,4.1432,4.1462,4.1473,4.1509,4.1513,4.1537,4.1582,4.1601,4.1616,4.1656,4.1657,4.1664,4.168,4.1702,4.1706,4.171,4.1725,4.173,4.1667,4.1667,4.1667,0,4.1317,4.1361,4.1376,4.1406,4.1424,4.1431,4.1461,4.148,4.1515,4.1528,4.1522,4.158,4.1598,4.1641,4.1651,4.1663,4.1671,4.166,4.1705,4.1708,4.1712,4.1726,4.1732,4.1668,4.1668,4.1668,4.1668,0,4.1367,4.1397,4.1417,4.1455,4.1475,4.1505,4.1524,4.1543,4.155,4.1564,4.1601,4.1624,4.1655,4.1665,4.1671,4.171,4.1706,4.1702,4.169,4.1718,4.1731,4.1737,4.1669,4.1669,4.1669,4.1668,0,0,4.1394,4.1442,4.1449,4.1467,4.1501,4.1524,4.1555,4.1587,4.1603,4.1628,4.1654,4.1693,4.1691,4.1708,4.1717,4.1736,4.1767,4.173,4.1731,4.1736,4.1812,4.1814,4.182,4.1768,4.1769,4.177,4.181,0,4.1428,4.1484,4.15,4.1546,4.1575,4.1583,4.161,4.1634,4.1648,4.1674,4.1689,4.1718,4.1712,4.1723,4.1742,4.1759,4.1782,4.1756,4.1792,4.1793,4.1785,4.1827,4.183,4.1866,4.1815,4.1816,4.1817,0,4.1474,4.1503,4.1554,4.1587,4.1599,4.1623,4.1655,4.1679,4.1707,4.1716,4.1737,4.1744,4.1776,4.1763,4.1807,4.179,4.1805,4.1816,4.1817,4.1821,4.1806,4.1832,4.1878,4.1883,4.1825,4.1824,4.1824,0,4.149,4.1541,4.1579,4.1593,4.1632,4.1649,4.1666,4.1693,4.1712,4.1739,4.1752,4.1782,4.1798,4.1821,4.1836,4.1825,4.1879,4.1867,4.1887,4.1887,4.1898,4.1897,4.1947,4.1908,4.1908,4.1908,4.1907,0,4.1526,4.1557,4.1587,4.1609,4.1644,4.1662,4.1695,4.1712,4.1737,4.1763,4.1771,4.1795,4.1813,4.184,4.1851,4.1886,4.1893,4.1902,4.1904,4.1901,4.19,4.1911,4.1909,4.1909,4.1909,4.1908,4.1908,0,4.1549,4.157,4.1612,4.1647,4.1656,4.168,4.171,4.1732,4.1748,4.1781,4.1789,4.1814,4.1846,4.1863,4.1902,4.191,4.1949,4.1951,4.1941,4.1942,4.1961,4.1959,4.2019,4.2029,4.1984,4.1984,4.1984,0,4.1571,4.1595,4.1634,4.1653,4.1671,4.17,4.1721,4.1739,4.176,4.1794,4.1812,4.1845,4.1872,4.1922,4.1943,4.1973,4.1975,4.1995,4.198,4.1976,4.1976,4.1975,4.1977,4.1997,4.1997,4.1998,4.1998,0,4.1607,4.1617,4.1647,4.1681,4.1706,4.1733,4.1759,4.1774,4.1797,4.182,4.1853,4.1875,4.1916,4.1948,4.1981,4.1997,4.2001,4.2003,4.2009,4.2006,4.1999,4.2003,4.1948,4.2001,4.2001,4.2,4.2,4.2,4.1631,4.1654,4.1685,4.1718,4.1741,4.1766,4.179,4.1809,4.1838,4.1875,4.1884,4.1919,4.1947,4.1992,4.2009,4.2037,4.2033,4.2042,4.2044,4.2046,4.2047,4.1995,4.2042,4.2042,4.2042,4.2042,4.2042,0,4.1668,4.169,4.172,4.1759,4.1785,4.1789,4.1819,4.1841,4.1872,4.1899,4.1926,4.1966,4.1997,4.2021,4.2054,4.2071,4.2074,4.2079,4.2078,4.2082,4.2048,4.204,4.2077,4.2077,4.2077,4.2077,4.2077,4.2077,4.1691,4.173,4.1744,4.1794,4.1815,4.1852,4.1869,4.1892,4.1914,4.1958,4.1985,4.2001,4.2027,4.2062,4.2091,4.2097,4.2109,4.2114,4.212,4.2088,4.2084,4.2081,4.2073,4.2116,4.2116,4.2152,4.2152,4.2152]}]]